This is the latest recevied weather packets stored in our database for station/object OK3MS-5. If no packets are shown the sender has not sent any weather packets the latest 10 day(s).
| Time | Temp. | Humidity | Pressure | Rain* | Wind** | Luminosity | Snow |
|---|---|---|---|---|---|---|---|
| 1787822704 | 23.89° C | 57% | 1015.3 hPa | 0 mm | - | 613 W/m² | - |
| 1787822406 | 23.89° C | 58% | 1015.4 hPa | 0 mm | - | 584 W/m² | - |
| 1787822103 | 23.89° C | 57% | 1015.3 hPa | 0 mm | - | 599 W/m² | - |
| 1787821804 | 23.89° C | 57% | 1015.4 hPa | 0 mm | - | 561 W/m² | - |
| 1787821505 | 23.89° C | 58% | 1015.3 hPa | 0 mm | - | 555 W/m² | - |
| 1787821204 | 23.33° C | 59% | 1015.3 hPa | 0 mm | - | 516 W/m² | - |
| 1787820902 | 23.33° C | 59% | 1015.4 hPa | 0 mm | - | 496 W/m² | - |
| 1787820604 | 23.33° C | 59% | 1015.5 hPa | 0 mm | - | 438 W/m² | - |
| 1787820304 | 23.33° C | 60% | 1015.6 hPa | 0 mm | - | 407 W/m² | - |
| 1787820003 | 23.33° C | 59% | 1015.5 hPa | 0 mm | - | 398 W/m² | - |
| 1787819703 | 23.33° C | 59% | 1015.2 hPa | 0 mm | - | 490 W/m² | - |
| 1787819403 | 23.33° C | 60% | 1015.3 hPa | 0 mm | - | 496 W/m² | - |
| 1787819103 | 23.33° C | 60% | 1015.4 hPa | 0 mm | - | 472 W/m² | - |
| 1787818804 | 22.78° C | 60% | 1015.7 hPa | 0 mm | - | 480 W/m² | - |
| 1787818503 | 22.78° C | 62% | 1015.6 hPa | 0 mm | - | 465 W/m² | - |
| 1787818204 | 22.78° C | 61% | 1015.8 hPa | 0 mm | - | 407 W/m² | - |
| 1787817903 | 22.22° C | 63% | 1015.8 hPa | 0 mm | - | 427 W/m² | - |
| 1787817603 | 22.22° C | 62% | 1016 hPa | 0 mm | - | 420 W/m² | - |
| 1787817302 | 22.22° C | 64% | 1015.9 hPa | 0 mm | - | 160 W/m² | - |
| 1787817005 | 21.67° C | 64% | 1016 hPa | 0 mm | - | 391 W/m² | - |
| 1787816705 | 21.11° C | 66% | 1016.1 hPa | 0 mm | - | 374 W/m² | - |
| 1787816404 | 21.11° C | 68% | 1016.1 hPa | 0 mm | - | 361 W/m² | - |
| 1787816102 | 21.11° C | 68% | 1016.1 hPa | 0 mm | - | 345 W/m² | - |
| 1787815803 | 20.56° C | 67% | 1016.2 hPa | 0 mm | - | 334 W/m² | - |
| 1787815504 | 20° C | 69% | 1016.3 hPa | 0 mm | - | 318 W/m² | - |
* Rain latest hour (hover to see other rain measurements)
** Current wind speed in m/s (hover to see current wind gust speed)